Location: Dal�� Lhota
(48.7500°N, 14.0167°E)
Time: 06:06:57
(UTC+00:00)

Transit 2A - Pass Details

Date: 04 August 2021
Orbit: 594 x 964 km, 66.7° (Epoch: 24 September)

Event Time Altitude Azimuth Distance (km) Brightness Sun altitude
Rises 03:32:11 0° 169° (S) 2,832 8.8 -2.2°
Reaches altitude 10° 03:34:58 10° 150° (SSE) 1,959 8.2 -1.8°
Maximum altitude 03:37:54 18° 107° (ESE) 1,553 8.3 -1.4°
Drops below altitude 10° 03:40:58 10° 65° (ENE) 2,060 10.5 -1.0°
Sets 03:43:59 0° 47° (NE) 3,041 11.0 -0.5°
